Location: Lombard
(41.8800°N, 88.0080°W)
Time: 09:52:01
(UTC-05:00)

Transit 4A - Pass Details

Date: 08 December 2023
Orbit: 870 x 973 km, 66.8° (Epoch: 20 July)

Event Time Altitude Azimuth Distance (km) Brightness Sun altitude
Rises 02:23:12 0° 337° (NNW) 3,593 - -51.7°
Reaches altitude 10° 02:26:32 10° 354° (N) 2,625 - -51.1°
Maximum altitude 02:30:52 20° 40° (NE) 1,987 - -50.3°
Drops below altitude 10° 02:35:06 10° 86° (E) 2,567 - -49.6°
Exits shadow 02:35:30 - 88° (E) 2,668 10.8 -49.5°
Sets 02:38:18 0° 103° (ESE) 3,486 11.5 -49.0°
